Simultaneous Nadir Overpasses (SNOs) Predictions

Prediction of SNOs between METOP-C and LANDSAT-8 Satellite Orbit:

Table of predicted SNOs for the next 14.0 days since TLE Epoch: 2/18/2023
Index Date (METOP-C) Time (METOP-C) Lat,Lon (METOP-C) SZA (METOP-C ) Date (LANDSAT-8) Time (LANDSAT-8) Lat,Lon (LANDSAT-8) SZA (LANDSAT-8 ) Distance(km) Time Diff (sec)
1 02/19/2023 05:45:22 81.09, 132.40 94.01 02/19/2023 05:46:35 81.09, 132.41 94.03 0.27 73
2 02/19/2023 06:36:01 -81.12, -59.24 85.89 02/19/2023 06:36:00 -81.13, -59.33 85.89 1.52 1
3 02/19/2023 07:26:30 81.24, 112.23 94.59 02/19/2023 07:25:16 81.35, 112.15 94.63 12.22 74
4 02/22/2023 01:19:43 81.09,-161.11 93.02 02/22/2023 01:20:45 81.09,-161.05 93.04 1.01 62
5 02/22/2023 02:10:23 -81.12, 6.94 86.92 02/22/2023 02:10:11 -81.11, 6.87 86.93 1.36 12
6 02/24/2023 20:54:04 81.10, -94.36 92.04 02/24/2023 20:54:55 81.10, -94.45 92.04 1.71 51
7 02/24/2023 21:44:45 -81.12, 73.37 87.93 02/24/2023 21:44:21 -81.12, 73.48 87.93 1.98 24
8 02/27/2023 16:28:25 81.11, -27.71 91.03 02/27/2023 16:29:04 81.11, -27.80 91.04 1.56 39
9 02/27/2023 17:19:06 -81.13, 140.06 88.94 02/27/2023 17:18:30 -81.14, 140.15 88.94 1.84 36
10 03/02/2023 12:02:46 81.10, 38.45 89.95 03/02/2023 12:03:12 81.11, 38.55 89.97 1.82 26



Historial Predications of SNOs between METOP-C and LANDSAT-8
